Location: Newark
(49.8969°N, 3.3422°E)
Time: 00:25:31
(UTC+00:00)

A-11 Canister half - Pass Details

Date: 03 February 2020
Orbit: 1517 x 1683 km, 47.2° (Epoch: 24 February)

Event Time Altitude Azimuth Distance (km) Brightness Sun altitude
Rises 01:28:00 0° 280° (W) 4,719 - -52.4°
Reaches altitude 10° 01:31:06 10° 278° (W) 3,719 - -52.1°
Maximum altitude 01:40:17 65° 199° (SSW) 1,648 - -51.2°
Drops below altitude 10° 01:49:22 10° 120° (ESE) 3,678 - -50.2°
Exits shadow 01:50:15 - 120° (ESE) 3,958 11.2 -50.1°
Sets 01:52:26 0° 118° (ESE) 4,665 11.7 -49.9°
